Location: ?
(35.4996°N, 139.3166°E)
Time: 20:00:30
(UTC+00:00)

CZ-2C R/B - Pass Details

Date: 18 April 2024
Orbit: 666 x 779 km, 98.4° (Epoch: 26 May)

Event Time Altitude Azimuth Distance (km) Brightness Sun altitude
Rises 17:22:47 0° 26° (NNE) 3,267 6.8 -29.8°
Reaches altitude 10° 17:25:28 10° 38° (NE) 2,332 5.9 -29.4°
Maximum altitude 17:29:48 27° 96° (E) 1,453 4.3 -28.8°
Enters shadow 17:32:06 20° 135° (SE) 1,737 4.3 -28.4°
